Total_Precipitation_Accumulation
2.29 2.22 2.21 2.12 2.10 2.12 2.26 2.50 2.76 2.55 1.95 1.51 1.38 1.31 1.29 1.30 1.40 1.30 1.18 1.34 1.33 1.33 1.40 1.45 1.44 1.47 1.53 1.66 1.87 2.04 2.14 2.20 2.25 2.27 2.28 2.33 2.49 2.78
2.15 2.08 2.01 1.96 2.01 2.06 2.14 2.23 2.42 2.54 2.20 1.55 1.33 1.28 1.34 1.36 1.45 1.29 1.22 1.39 1.30 1.25 1.26 1.30 1.32 1.33 1.34 1.39 1.48 1.60 1.74 1.83 1.92 2.06 2.20 2.30 2.38 2.51
2.08 2.03 1.88 1.77 1.85 1.89 1.93 1.99 2.04 2.17 2.12 1.57 1.32 1.29 1.34 1.31 1.33 1.24 1.15 1.13 1.09 1.17 1.12 1.13 1.18 1.21 1.22 1.27 1.34 1.43 1.50 1.59 1.74 1.85 1.98 2.11 2.23 2.27
1.84 1.90 1.85 1.74 1.73 1.76 1.83 1.80 1.74 1.73 1.83 1.66 1.34 1.24 1.21 1.13 1.16 1.18 1.12 1.08 1.01 1.14 1.12 1.09 1.15 1.17 1.15 1.16 1.20 1.28 1.36 1.42 1.52 1.65 1.74 1.79 1.91 2.06
1.63 1.71 1.75 1.78 1.76 1.73 1.72 1.69 1.64 1.62 1.68 1.72 1.44 1.24 1.19 1.12 1.13 1.13 1.09 1.06 0.99 1.09 1.14 1.12 1.11 1.13 1.13 1.13 1.14 1.17 1.21 1.28 1.37 1.48 1.63 1.73 1.79 1.88
1.55 1.62 1.64 1.64 1.59 1.55 1.59 1.55 1.57 1.63 1.63 1.70 1.61 1.42 1.30 1.20 1.22 1.25 1.24 1.11 1.04 1.02 1.15 1.16 1.16 1.14 1.12 1.09 1.04 1.04 1.07 1.18 1.34 1.52 1.66 1.77 1.81 1.85
1.61 1.57 1.59 1.65 1.58 1.53 1.53 1.54 1.57 1.68 1.74 1.79 1.68 1.49 1.36 1.30 1.24 1.15 1.21 1.19 1.14 1.04 1.08 1.07 1.10 1.12 1.11 1.15 1.16 1.15 1.18 1.28 1.44 1.61 1.75 1.83 1.88 1.93
1.57 1.46 1.46 1.57 1.57 1.58 1.57 1.55 1.63 1.77 1.86 1.88 1.74 1.51 1.23 1.14 1.19 1.33 1.46 1.62 1.57 1.13 1.12 1.22 1.24 1.33 1.27 1.22 1.35 1.37 1.36 1.43 1.51 1.59 1.70 1.79 1.84 1.88
1.45 1.36 1.32 1.31 1.41 1.33 1.40 1.48 1.49 1.60 1.69 1.70 1.63 1.32 1.15 1.10 1.35 1.59 1.63 1.65 1.48 1.23 1.40 1.57 1.43 1.37 1.25 1.28 1.48 1.39 1.35 1.37 1.42 1.48 1.54 1.61 1.68 1.73
1.35 1.25 1.22 1.20 1.24 1.35 1.44 1.52 1.41 1.32 1.29 1.23 1.21 1.15 1.13 1.22 1.49 1.79 1.95 2.01 1.75 1.51 1.51 1.68 1.42 1.28 1.18 1.21 1.40 1.36 1.29 1.32 1.38 1.45 1.51 1.55 1.59 1.60
1.39 1.31 1.26 1.19 1.32 1.54 1.63 1.64 1.45 1.26 1.23 1.26 1.31 1.32 1.40 1.48 1.60 1.92 2.20 2.38 2.14 1.61 1.37 1.44 1.34 1.28 1.24 1.22 1.32 1.46 1.38 1.34 1.39 1.44 1.45 1.48 1.55 1.62
1.45 1.39 1.46 1.38 1.48 1.62 1.59 1.61 1.51 1.27 1.18 1.17 1.20 1.23 1.17 1.20 1.43 1.60 2.05 2.55 2.28 1.82 1.30 1.34 1.39 1.56 1.82 1.37 1.20 1.28 1.35 1.40 1.39 1.41 1.45 1.50 1.55 1.54
1.55 1.44 1.40 1.60 1.67 1.70 1.60 1.41 1.40 1.45 1.34 1.26 1.23 1.22 1.20 1.18 1.19 1.22 1.51 2.25 2.63 2.09 1.33 1.69 1.94 1.69 1.91 1.55 1.25 1.24 1.30 1.39 1.47 1.48 1.53 1.57 1.60 1.67
1.49 1.34 1.38 1.64 1.65 1.61 1.49 1.50 1.61 1.55 1.37 1.41 1.41 1.36 1.29 1.24 1.22 1.24 1.29 1.48 1.83 1.98 1.60 1.90 2.38 1.96 2.09 1.80 1.38 1.31 1.34 1.49 1.65 1.66 1.61 1.76 1.74 1.77
1.46 1.51 1.55 1.58 1.54 1.49 1.55 1.56 1.51 1.41 1.48 1.59 1.49 1.34 1.25 1.25 1.28 1.36 1.39 1.40 1.49 1.54 1.53 1.61 1.93 1.95 2.17 2.13 1.67 1.45 1.56 1.63 1.76 1.95 1.94 1.84 1.72 1.72
1.56 1.60 1.56 1.51 1.50 1.51 1.59 1.56 1.44 1.45 1.61 1.64 1.50 1.38 1.35 1.41 1.43 1.48 1.65 1.69 1.81 1.74 1.59 1.52 1.60 1.89 2.02 1.70 1.76 1.72 1.70 1.99 2.01 2.17 2.16 1.94 1.74 1.61
1.65 1.55 1.48 1.46 1.48 1.46 1.41 1.42 1.45 1.55 1.63 1.56 1.57 1.57 1.57 1.65 1.70 1.74 1.90 2.00 2.04 1.81 1.63 1.51 1.49 1.58 1.72 1.78 1.83 1.69 1.71 1.94 2.12 2.23 2.27 2.17 1.94 1.73
1.66 1.57 1.48 1.40 1.39 1.39 1.38 1.37 1.40 1.47 1.58 1.70 1.75 1.75 1.79 1.87 1.95 1.97 2.10 2.22 2.10 1.76 1.54 1.42 1.47 1.65 1.72 1.68 1.68 1.72 1.79 1.97 2.10 2.10 2.01 2.07 2.04 1.77
1.48 1.43 1.39 1.35 1.32 1.31 1.35 1.40 1.42 1.42 1.57 1.81 1.94 1.99 2.04 2.09 2.15 2.20 2.21 2.20 2.02 1.74 1.54 1.43 1.56 2.00 2.12 1.64 1.33 1.48 1.89 2.03 1.98 1.98 1.84 1.77 1.85 1.67
1.35 1.32 1.30 1.29 1.32 1.36 1.41 1.50 1.55 1.56 1.68 1.85 1.96 2.03 2.14 2.28 2.32 2.23 2.12 2.05 1.95 1.73 1.54 1.39 1.46 1.90 2.41 2.13 1.76 1.54 1.63 1.92 2.07 2.06 1.77 1.59 1.62 1.62
1.30 1.28 1.26 1.30 1.38 1.44 1.48 1.56 1.68 1.80 1.88 2.05 2.11 2.11 2.18 2.39 2.38 2.15 1.99 1.91 1.84 1.69 1.52 1.28 1.23 1.47 1.85 2.15 2.06 1.68 1.68 1.80 1.92 2.18 2.10 2.04 1.86 1.65
1.35 1.35 1.33 1.35 1.44 1.51 1.56 1.66 1.80 1.86 1.95 2.08 2.13 2.14 2.19 2.31 2.27 2.02 1.84 1.82 1.71 1.58 1.46 1.30 1.24 1.39 1.74 2.17 1.96 1.59 1.57 1.60 1.60 1.61 1.81 2.18 2.62 2.59
1.43 1.46 1.47 1.47 1.52 1.59 1.67 1.73 1.84 1.90 1.97 2.12 2.16 2.10 2.09 2.06 1.88 1.80 1.75 1.73 1.74 1.65 1.58 1.55 1.48 1.50 1.62 1.73 1.81 1.65 1.49 1.43 1.40 1.53 1.77 1.72 1.73 1.87